TimePST,TemperatureF,Dew PointF,Humidity,Sea Level PressureIn,VisibilityMPH,Wind Direction,Wind SpeedMPH,Gust SpeedMPH,PrecipitationIn,Events,Conditions,WindDirDegrees,DateUTC
12:53 AM,34.0,30.9,89,30.31,10.0,WSW,5.8,-,N/A,,Clear,250,2013-02-17 08:53:00
1:53 AM,32.0,30.0,92,30.32,10.0,NNE,5.8,-,N/A,,Clear,30,2013-02-17 09:53:00
2:53 AM,33.1,30.0,89,30.32,10.0,WNW,3.5,-,N/A,,Scattered Clouds,300,2013-02-17 10:53:00
3:53 AM,34.0,30.9,89,30.31,10.0,Calm,Calm,-,N/A,,Overcast,0,2013-02-17 11:53:00
5:53 AM,34.0,30.9,89,30.31,10.0,Calm,Calm,-,N/A,,Overcast,0,2013-02-17 13:53:00
6:53 AM,35.1,30.9,85,30.30,10.0,SE,5.8,-,N/A,,Overcast,130,2013-02-17 14:53:00
7:53 AM,36.0,33.1,89,30.30,10.0,Calm,Calm,-,N/A,,Overcast,0,2013-02-17 15:53:00
8:53 AM,37.9,34.0,86,30.30,10.0,Calm,Calm,-,N/A,,Mostly Cloudy,0,2013-02-17 16:53:00
10:53 AM,46.0,36.0,68,30.29,10.0,Calm,Calm,-,N/A,,Clear,0,2013-02-17 18:53:00
11:53 AM,46.0,30.0,54,30.28,10.0,South,3.5,-,N/A,,Overcast,190,2013-02-17 19:53:00
12:53 PM,46.9,30.9,54,30.26,10.0,WSW,3.5,-,N/A,,Overcast,240,2013-02-17 20:53:00
1:53 PM,46.9,30.9,54,30.25,10.0,ESE,3.5,-,N/A,,Overcast,120,2013-02-17 21:53:00
2:53 PM,48.0,30.9,52,30.23,10.0,SSE,4.6,-,N/A,,Overcast,150,2013-02-17 22:53:00
3:53 PM,46.9,32.0,56,30.22,10.0,South,4.6,-,N/A,,Overcast,180,2013-02-17 23:53:00
5:53 PM,44.1,35.1,71,30.19,10.0,Calm,Calm,-,N/A,,Scattered Clouds,0,2013-02-18 01:53:00
6:53 PM,42.1,35.1,76,30.18,10.0,North,4.6,-,N/A,,Partly Cloudy,360,2013-02-18 02:53:00
7:53 PM,41.0,35.1,79,30.17,10.0,NNW,5.8,-,N/A,,Clear,330,2013-02-18 03:53:00
9:53 PM,37.9,34.0,86,30.15,10.0,NNW,4.6,-,N/A,,Clear,340,2013-02-18 05:53:00
10:53 PM,37.0,34.0,89,30.14,10.0,Calm,Calm,-,N/A,,Scattered Clouds,0,2013-02-18 06:53:00
11:53 PM,36.0,33.1,89,30.12,10.0,Calm,Calm,-,N/A,,Clear,0,2013-02-18 07:53:00